Location: Dzierzno
(50.6159°N, 19.2852°E)
Time: 06:18:55
(UTC+00:00)

MOS 1 Rocket - Pass Details

Date: 18 November 2025
Orbit: 610 x 813 km, 97.4° (Epoch: 06 December)

Event Time Altitude Azimuth Distance (km) Brightness Sun altitude
Rises 16:00:47 0° 148° (SSE) 2,885 6.3 -10.7°
Reaches altitude 10° 16:02:59 10° 142° (SE) 2,000 5.5 -11.0°
Maximum altitude 16:07:08 47° 69° (ENE) 862 3.4 -11.6°
Drops below altitude 10° 16:11:31 10° 357° (N) 2,106 5.7 -12.3°
Sets 16:13:52 0° 351° (N) 3,058 6.6 -12.7°
